Погода в Вижасе

Россия / Ненецкий автономный округ     66°38′22″N   45°53′10″E
В апреле 2022 года жителям России запретили посещать сайт meteo.paraplan.net по решению Генеральной прокуратуры. Аудитория сайта уменьшилась в 10 раз. Владельцы сайта не видят смысла в поддержке погодного сервера в таких условиях. Сайт будет закрыт в октябре.
темп.,
°C
ветер,
м/с
пор.,
м/с
влажн.,
%
обл.,
%
осадки,
мм/ч
давл.,
гПа
погр.,
м
29 сентября, чт
чт2900:00−1ююв57670 0.0 1026101
03:00−2ююв57672 0.0 1027106
06:00−2ююв58684 0.0 1027120
09:00+2юв68545 0.0 1026326
12:00+5юв68435 0.0 1026656
15:00+5юв68455 0.0 1024770
18:00+1юв69635 0.0 1024133
21:00−1юв611705 0.0 1024162
30 сентября, пт
пт3000:00−1юв6117225 0.0 1023185
03:00−1юв61171100 0.0 1022231
06:00−1юв71268100 0.0 1020330
09:00−1ююв81294100 0.7 1019485
12:00+2ююв9117999 0.9 1018661
15:00+2ююв81188100 1.0 1018568
18:00+2ююв7118995 0.0 1017340
21:00+2ююв61094100 0.3 1017431
1 октября, сб
сб100:00+2ююв5998100 0.4 1015278
03:00+2ююв5897100 0.6 1014214
06:00+3ююв5898100 0.1 1013209
09:00+3ююв5798100 0.1 1011217
12:00+3ююв4798100 0.3 1010183
15:00+4ююз4899100 2.2 1009232
18:00+5ююз51096100 0.5 1009224
21:00+6зюз81488100 0.6 1010431
2 октября, вс
вс200:00+3юз7129191 0.0 1011243
03:00+4юз71091100 0.1 1012278
06:00+3ююз61091100 0.0 1012267
09:00+4юз71187100 0.1 1012707
12:00+5юз71085100 0.3 1012686
15:00+5зюз589092 0.4 1012370
18:00+4юз5791100 0.4 1012265
21:00+4з228864 0.6 101274
3 октября, пн
пн300:00+4з3377100 0.0 101284
03:00+4з3475100 0.0 101373
06:00+3сз448637 0.0 101350
09:00+5сз468184 0.0 1015226
12:00+6ссз4570100 0.1 1017477
15:00+7сз3460100 0.1 1019167
18:00+5з226364 0.0 102034
21:00+4зюз347041 0.0 102141